Terug naar catalogus

SL-12 DEB

LostHEO
NORAD 29450·DEBRIS·🇷🇺 Russia

Gelanceerd May 31, 1989 vanaf Baikonur Cosmodrome

Loading…

Volgende Passages (komende 24 uur)

TLE

VerouderdSource: Space-Track

Epoch: Sep 25, 2018, 07:35 UTC

1 29450U 89039CU  18268.31605905  .00000001  00000-0  00000+0 0  9993
2 29450  63.8639 269.6460 4974193 340.3403   5.8026  4.28951628190831

Volg SL-12 DEB in realtime met AllMySat

Download on the App Store